UEA7404 ZULS-ZUCK

Flight info

Callsign UEA7404
Flight time 1h 52m
Altitude 37100
Route DEP10R DUMIX W9 CZH B213 VINEX VINEX1J
Aircraft A320/M-SDE3FGHIRWY/LB1

Departure

Time 2026-05-09 12:54
Airport Lhasa Gonggar International Airport (ZULS)

Arrival

Time 2026-05-09 14:46
Airport Chongqing Jiangbei International Airport (ZUCK)
Time Latitude Longitude Altitude Speed Heading
2026-05-09 12:25 29.29302 90.89325 11599 ft 0 kts 110°
2026-05-09 12:42 29.29306 90.89311 11600 ft 4 kts 105°
2026-05-09 12:43 29.29311 90.89281 11606 ft 4 kts 90°
2026-05-09 12:43 29.29308 90.89251 11605 ft 4 kts 72°
2026-05-09 12:43 29.29297 90.89224 11596 ft 4 kts 51°
2026-05-09 12:43 29.29278 90.89204 11593 ft 3 kts 22°
2026-05-09 12:44 29.29274 90.89202 11601 ft 0 kts 19°
2026-05-09 12:46 29.29280 90.89205 11592 ft 1 kts 20°
2026-05-09 12:47 29.29292 90.89210 11589 ft 2 kts 20°
2026-05-09 12:47 29.29311 90.89216 11598 ft 3 kts 15°
2026-05-09 12:47 29.29339 90.89220 11602 ft 5 kts 358°
2026-05-09 12:47 29.29372 90.89207 11598 ft 6 kts 333°
2026-05-09 12:48 29.29411 90.89195 11603 ft 6 kts 360°
2026-05-09 12:48 29.29446 90.89197 11599 ft 0 kts
2026-05-09 12:48 29.29454 90.89197 11599 ft 4 kts
2026-05-09 12:48 29.29504 90.89178 11601 ft 10 kts 307°
2026-05-09 12:49 29.29510 90.89098 11601 ft 11 kts 268°
2026-05-09 12:49 29.29507 90.89011 11596 ft 11 kts 268°
2026-05-09 12:49 29.29504 90.88920 11601 ft 12 kts 268°
2026-05-09 12:49 29.29503 90.88825 11609 ft 12 kts 274°
2026-05-09 12:50 29.29537 90.88737 11592 ft 12 kts 313°
2026-05-09 12:50 29.29618 90.88710 11600 ft 13 kts 358°
2026-05-09 12:50 29.29706 90.88706 11600 ft 13 kts 357°
2026-05-09 12:50 29.29795 90.88701 11603 ft 13 kts
2026-05-09 12:51 29.29874 90.88746 11606 ft 13 kts 42°
2026-05-09 12:51 29.29943 90.88814 11614 ft 13 kts 31°
2026-05-09 12:51 29.30023 90.88835 11606 ft 5 kts
2026-05-09 12:51 29.30025 90.88835 11602 ft 0 kts
2026-05-09 12:52 29.30048 90.88835 11605 ft 5 kts
2026-05-09 12:52 29.30109 90.88844 11610 ft 10 kts 40°
2026-05-09 12:52 29.30114 90.88882 11614 ft 0 kts 88°
2026-05-09 12:52 29.30114 90.88883 11614 ft 1 kts 88°
2026-05-09 12:53 29.30119 90.89108 11614 ft 62 kts 88°
2026-05-09 12:53 29.30131 90.89850 11609 ft 122 kts 89°
2026-05-09 12:53 29.30150 90.91015 11611 ft 169 kts 89°
2026-05-09 12:53 29.30175 90.92492 11602 ft 205 kts 88°
2026-05-09 12:54 29.30155 90.94129 12228 ft 203 kts 89°
2026-05-09 12:54 29.30067 90.95746 13013 ft 205 kts 94°
2026-05-09 12:54 29.29933 90.97432 13339 ft 221 kts 94°
2026-05-09 12:54 29.29786 90.99248 13443 ft 237 kts 94°
2026-05-09 12:55 29.29677 91.01188 13547 ft 251 kts 89°
2026-05-09 12:55 29.29650 91.03238 13659 ft 266 kts 89°
2026-05-09 12:55 29.29659 91.05419 13792 ft 284 kts 88°
2026-05-09 12:55 29.29681 91.07739 14164 ft 295 kts 86°
2026-05-09 12:56 29.29703 91.10099 14790 ft 298 kts 88°
2026-05-09 12:56 29.29718 91.12444 15446 ft 300 kts 87°
2026-05-09 12:56 29.29728 91.14838 16114 ft 302 kts 88°
2026-05-09 12:56 29.29679 91.17252 16754 ft 305 kts 98°
2026-05-09 12:57 29.29076 91.19599 17378 ft 310 kts 108°
2026-05-09 12:57 29.28455 91.21964 18001 ft 312 kts 96°
2026-05-09 12:57 29.28247 91.24504 18196 ft 331 kts 92°
2026-05-09 12:57 29.28095 91.27209 18327 ft 350 kts 92°
2026-05-09 12:58 29.27962 91.30067 18440 ft 368 kts 91°
2026-05-09 12:58 29.27831 91.33065 18555 ft 386 kts 92°
2026-05-09 12:58 29.27689 91.36153 18668 ft 401 kts 92°
2026-05-09 12:58 29.27530 91.39403 18777 ft 416 kts 92°
2026-05-09 12:59 29.27356 91.42761 18891 ft 429 kts 92°
2026-05-09 12:59 29.27171 91.46215 19007 ft 441 kts 92°
2026-05-09 12:59 29.26977 91.49756 19122 ft 451 kts 92°
2026-05-09 12:59 29.26776 91.53377 19275 ft 459 kts 93°
2026-05-09 13:00 29.26574 91.57044 19539 ft 464 kts 94°
2026-05-09 13:00 29.26369 91.60745 19832 ft 468 kts 95°
2026-05-09 13:00 29.26162 91.64469 20178 ft 470 kts 94°
2026-05-09 13:00 29.25955 91.68164 20486 ft 473 kts 94°
2026-05-09 13:01 29.25746 91.71932 20811 ft 475 kts 94°
2026-05-09 13:01 29.25539 91.75711 21134 ft 477 kts 94°
2026-05-09 13:01 29.25359 91.79512 21440 ft 480 kts 93°
2026-05-09 13:01 29.25241 91.83337 21775 ft 481 kts 92°
2026-05-09 13:02 29.25166 91.87180 22052 ft 484 kts 91°
2026-05-09 13:02 29.25110 91.91041 22368 ft 486 kts 91°
2026-05-09 13:02 29.25051 91.94921 22620 ft 489 kts 92°
2026-05-09 13:02 29.24976 91.98822 22899 ft 491 kts 92°
2026-05-09 13:03 29.24884 92.02739 23188 ft 493 kts 92°
2026-05-09 13:03 29.24780 92.06621 23448 ft 495 kts 92°
2026-05-09 13:03 29.24672 92.10566 23711 ft 497 kts 92°
2026-05-09 13:03 29.24563 92.14532 23945 ft 500 kts 92°
2026-05-09 13:04 29.24455 92.18510 24217 ft 500 kts 92°
2026-05-09 13:04 29.24347 92.22488 24525 ft 500 kts 92°
2026-05-09 13:04 29.24240 92.26465 24850 ft 499 kts 92°
2026-05-09 13:04 29.24134 92.30429 25225 ft 498 kts 92°
2026-05-09 13:05 29.24027 92.34398 25511 ft 499 kts 93°
2026-05-09 13:05 29.23916 92.38321 25853 ft 499 kts 93°
2026-05-09 13:05 29.23802 92.42291 26198 ft 499 kts 92°
2026-05-09 13:05 29.23688 92.46259 26573 ft 498 kts 93°
2026-05-09 13:06 29.23575 92.50220 26947 ft 498 kts 93°
2026-05-09 13:06 29.23606 92.54174 27310 ft 497 kts 85°
2026-05-09 13:06 29.24136 92.58079 27700 ft 497 kts 77°
2026-05-09 13:06 29.25178 92.61848 28076 ft 497 kts 68°
2026-05-09 13:07 29.26698 92.65390 28488 ft 495 kts 60°
2026-05-09 13:07 29.28382 92.68769 28841 ft 496 kts 60°
2026-05-09 13:07 29.30091 92.72205 29193 ft 496 kts 60°
2026-05-09 13:07 29.31796 92.75640 29570 ft 496 kts 60°
2026-05-09 13:08 29.33496 92.79072 29972 ft 495 kts 60°
2026-05-09 13:08 29.35194 92.82504 30352 ft 495 kts 60°
2026-05-09 13:08 29.38517 92.89234 30936 ft 496 kts 60°
2026-05-09 13:09 29.40213 92.92680 31220 ft 497 kts 60°
2026-05-09 13:09 29.41914 92.96130 31515 ft 497 kts 60°
2026-05-09 13:09 29.43615 92.99581 31801 ft 497 kts 60°
2026-05-09 13:09 29.45320 93.03040 32119 ft 498 kts 60°
2026-05-09 13:10 29.47027 93.06505 32393 ft 500 kts 60°
2026-05-09 13:10 29.48746 93.10000 32526 ft 505 kts 60°
2026-05-09 13:10 29.50451 93.13479 32694 ft 509 kts 60°
2026-05-09 13:10 29.52173 93.17001 33113 ft 503 kts 60°
2026-05-09 13:11 29.53877 93.20494 33231 ft 500 kts 60°
2026-05-09 13:11 29.57273 93.27447 33249 ft 498 kts 60°
2026-05-09 13:12 29.60664 93.34389 33250 ft 498 kts 60°
2026-05-09 13:12 29.62359 93.37864 33394 ft 499 kts 60°
2026-05-09 13:12 29.64054 93.41339 33736 ft 499 kts 60°
2026-05-09 13:12 29.65725 93.44772 34057 ft 498 kts 60°
2026-05-09 13:13 29.67417 93.48251 34320 ft 499 kts 60°
2026-05-09 13:13 29.69114 93.51744 34531 ft 501 kts 60°
2026-05-09 13:13 29.70813 93.55250 34725 ft 503 kts 60°
2026-05-09 13:13 29.72520 93.58771 34918 ft 505 kts 60°
2026-05-09 13:14 29.74236 93.62306 35113 ft 507 kts 60°
2026-05-09 13:14 29.75959 93.65854 35318 ft 509 kts 60°
2026-05-09 13:16 29.88047 93.90962 36608 ft 520 kts 62°
2026-05-09 13:16 29.89513 93.94786 36765 ft 523 kts 71°
2026-05-09 13:16 29.90516 93.98817 36942 ft 524 kts 79°
2026-05-09 13:16 29.91319 94.02918 37098 ft 525 kts 79°
2026-05-09 13:17 29.92112 94.06967 37230 ft 525 kts 79°
2026-05-09 13:17 29.93744 94.15231 37277 ft 531 kts 78°
2026-05-09 13:18 29.95390 94.23554 37282 ft 536 kts 79°
2026-05-09 13:18 29.97042 94.31943 37293 ft 537 kts 78°
2026-05-09 13:19 29.98674 94.40295 37303 ft 538 kts 79°
2026-05-09 13:19 30.00316 94.48747 37323 ft 542 kts 78°
2026-05-09 13:20 30.01965 94.57225 37329 ft 541 kts 79°
2026-05-09 13:20 30.03596 94.65679 37331 ft 539 kts 79°
2026-05-09 13:21 30.05209 94.74052 37315 ft 537 kts 79°
2026-05-09 13:21 30.06822 94.82449 37310 ft 535 kts 79°
2026-05-09 13:22 30.08434 94.90833 37290 ft 535 kts 78°
2026-05-09 13:22 30.10034 94.99209 37291 ft 535 kts 79°
2026-05-09 13:23 30.14210 95.20160 37299 ft 539 kts 78°
2026-05-09 13:24 30.15870 95.28535 37305 ft 537 kts 78°
2026-05-09 13:24 30.17527 95.36975 37300 ft 539 kts 79°
2026-05-09 13:25 30.19162 95.45383 37320 ft 541 kts 79°
2026-05-09 13:26 30.21655 95.58115 37331 ft 541 kts 78°
2026-05-09 13:26 30.23306 95.66604 37336 ft 541 kts 79°
2026-05-09 13:27 30.24949 95.75117 37316 ft 543 kts 79°
2026-05-09 13:27 30.26577 95.83576 37307 ft 543 kts 79°
2026-05-09 13:28 30.28218 95.92112 37333 ft 543 kts 78°
2026-05-09 13:28 30.29849 96.00625 37304 ft 542 kts 78°
2026-05-09 13:29 30.31513 96.09078 37294 ft 543 kts 78°
2026-05-09 13:29 30.33239 96.17589 37290 ft 543 kts 77°
2026-05-09 13:30 30.34964 96.26112 37267 ft 543 kts 79°
2026-05-09 13:30 30.36656 96.34640 37228 ft 544 kts 78°
2026-05-09 13:31 30.38341 96.43189 37220 ft 545 kts 78°
2026-05-09 13:31 30.40021 96.51680 37217 ft 544 kts 78°
2026-05-09 13:32 30.41701 96.60226 37218 ft 545 kts 78°
2026-05-09 13:32 30.44211 96.73036 37224 ft 543 kts 78°
2026-05-09 13:33 30.45867 96.81523 37216 ft 543 kts 78°
2026-05-09 13:33 30.47530 96.90081 37183 ft 546 kts 78°
2026-05-09 13:34 30.49196 96.98716 37212 ft 551 kts 78°
2026-05-09 13:34 30.50858 97.07338 37188 ft 544 kts 78°
2026-05-09 13:35 30.51871 97.15961 37167 ft 537 kts 93°
2026-05-09 13:35 30.51310 97.24495 37166 ft 534 kts 99°
2026-05-09 13:36 30.50606 97.33066 37143 ft 535 kts 99°
2026-05-09 13:36 30.49907 97.41649 37138 ft 535 kts 99°
2026-05-09 13:37 30.49191 97.50222 37147 ft 534 kts 99°
2026-05-09 13:37 30.48468 97.58731 37157 ft 534 kts 99°
2026-05-09 13:38 30.47752 97.67217 37129 ft 531 kts 99°
2026-05-09 13:38 30.47012 97.75791 37121 ft 536 kts 99°
2026-05-09 13:39 30.46265 97.84407 37119 ft 538 kts 100°
2026-05-09 13:39 30.45517 97.93028 37130 ft 539 kts 100°
2026-05-09 13:40 30.44762 98.01596 37119 ft 539 kts 100°
2026-05-09 13:40 30.43994 98.10256 37137 ft 540 kts 100°
2026-05-09 13:41 30.43224 98.18918 37148 ft 541 kts 99°
2026-05-09 13:41 30.42502 98.27586 37160 ft 541 kts 99°
2026-05-09 13:42 30.41858 98.36270 37144 ft 541 kts 99°
2026-05-09 13:42 30.41213 98.44908 37144 ft 542 kts 99°
2026-05-09 13:43 30.40526 98.53608 37148 ft 543 kts 99°
2026-05-09 13:43 30.39813 98.62319 37145 ft 543 kts 99°
2026-05-09 13:44 30.39107 98.71028 37126 ft 544 kts 99°
2026-05-09 13:44 30.38412 98.79700 37117 ft 546 kts 99°
2026-05-09 13:45 30.37701 98.88476 37120 ft 548 kts 99°
2026-05-09 13:45 30.36972 98.97260 37139 ft 549 kts 99°
2026-05-09 13:46 30.36242 99.06006 37135 ft 550 kts 99°
2026-05-09 13:46 30.35513 99.14830 37156 ft 551 kts 99°
2026-05-09 13:47 30.34768 99.23664 37172 ft 551 kts 99°
2026-05-09 13:47 30.34003 99.32502 37183 ft 551 kts 100°
2026-05-09 13:48 30.33245 99.41269 37192 ft 551 kts 99°
2026-05-09 13:48 30.32488 99.50099 37190 ft 552 kts 100°
2026-05-09 13:49 30.31721 99.58939 37201 ft 552 kts 100°
2026-05-09 13:49 30.30945 99.67775 37203 ft 552 kts 100°
2026-05-09 13:50 30.30166 99.76554 37211 ft 552 kts 100°
2026-05-09 13:50 30.29383 99.85390 37208 ft 552 kts 100°
2026-05-09 13:51 30.28587 99.94224 37191 ft 552 kts 101°
2026-05-09 13:51 30.27790 100.03040 37195 ft 553 kts 99°
2026-05-09 13:52 30.27108 100.11872 37214 ft 556 kts 98°
2026-05-09 13:52 30.27137 100.20832 37216 ft 561 kts 85°
2026-05-09 13:53 30.27980 100.29803 37266 ft 561 kts 85°
2026-05-09 13:53 30.28851 100.38760 37259 ft 560 kts 85°
2026-05-09 13:54 30.29696 100.47707 37280 ft 559 kts 85°
2026-05-09 13:54 30.30517 100.56586 37275 ft 558 kts 85°
2026-05-09 13:55 30.31337 100.65519 37257 ft 557 kts 85°
2026-05-09 13:55 30.32160 100.74428 37279 ft 559 kts 85°
2026-05-09 13:56 30.32972 100.83398 37300 ft 561 kts 86°
2026-05-09 13:56 30.33765 100.92291 37321 ft 559 kts 86°
2026-05-09 13:57 30.34550 101.01214 37299 ft 555 kts 86°
2026-05-09 13:57 30.35339 101.10157 37331 ft 559 kts 87°
2026-05-09 13:58 30.36132 101.19112 37339 ft 560 kts 86°
2026-05-09 13:58 30.36927 101.28031 37335 ft 561 kts 86°
2026-05-09 13:59 30.37715 101.37014 37352 ft 561 kts 86°
2026-05-09 13:59 30.38480 101.46006 37393 ft 561 kts 86°
2026-05-09 14:00 30.38980 101.51968 37377 ft 561 kts 86°
2026-05-09 14:00 30.39998 101.63967 37405 ft 562 kts 86°
2026-05-09 14:01 30.40756 101.72971 37400 ft 561 kts 87°
2026-05-09 14:01 30.41502 101.81988 37439 ft 563 kts 86°
2026-05-09 14:02 30.42248 101.91021 37465 ft 563 kts 86°
2026-05-09 14:02 30.42983 101.99996 37451 ft 563 kts 86°
2026-05-09 14:03 30.43711 102.09042 37442 ft 564 kts 86°
2026-05-09 14:03 30.44443 102.18092 37448 ft 564 kts 86°
2026-05-09 14:04 30.45164 102.27145 37443 ft 564 kts 87°
2026-05-09 14:04 30.45873 102.36136 37423 ft 564 kts 86°
2026-05-09 14:05 30.46580 102.45195 37407 ft 563 kts 85°
2026-05-09 14:05 30.47284 102.54252 37393 ft 565 kts 87°
2026-05-09 14:06 30.47983 102.63310 37349 ft 565 kts 86°
2026-05-09 14:06 30.48669 102.72344 37337 ft 567 kts 86°
2026-05-09 14:07 30.49351 102.81464 37288 ft 567 kts 87°
2026-05-09 14:07 30.50032 102.90553 37296 ft 566 kts 86°
2026-05-09 14:08 30.50705 102.99663 37266 ft 568 kts 86°
2026-05-09 14:08 30.51369 103.08733 37249 ft 568 kts 86°
2026-05-09 14:09 30.52031 103.17860 37274 ft 568 kts 86°
2026-05-09 14:09 30.52696 103.26987 37223 ft 568 kts 87°
2026-05-09 14:10 30.53668 103.40674 37202 ft 568 kts 86°
2026-05-09 14:11 30.54303 103.49752 37182 ft 569 kts 86°
2026-05-09 14:11 30.54941 103.58906 37178 ft 570 kts 86°
2026-05-09 14:12 30.55574 103.68072 37177 ft 570 kts 86°
2026-05-09 14:12 30.56196 103.77236 37182 ft 570 kts 86°
2026-05-09 14:13 30.56807 103.86340 37179 ft 570 kts 86°
2026-05-09 14:14 30.58744 104.18480 36492 ft 569 kts 87°
2026-05-09 14:15 30.59003 104.23052 35806 ft 568 kts 87°
2026-05-09 14:15 30.59263 104.27559 35128 ft 567 kts 86°
2026-05-09 14:15 30.59545 104.32114 34465 ft 565 kts 86°
2026-05-09 14:15 30.59841 104.36658 33758 ft 564 kts 86°
2026-05-09 14:16 30.60144 104.41182 33040 ft 560 kts 86°
2026-05-09 14:16 30.60442 104.45676 32318 ft 557 kts 85°
2026-05-09 14:16 30.60969 104.50099 31652 ft 551 kts 75°
2026-05-09 14:16 30.62022 104.54339 31294 ft 545 kts 71°
2026-05-09 14:17 30.63116 104.58538 31127 ft 542 kts 71°
2026-05-09 14:17 30.65261 104.66873 31169 ft 542 kts 72°
2026-05-09 14:18 30.67403 104.75271 31204 ft 542 kts 72°
2026-05-09 14:18 30.69534 104.83622 31177 ft 537 kts 72°
2026-05-09 14:19 30.71654 104.91933 31174 ft 536 kts 72°
2026-05-09 14:19 30.73761 105.00211 31177 ft 539 kts 72°
2026-05-09 14:20 30.75895 105.08565 31180 ft 539 kts 72°
2026-05-09 14:20 30.77996 105.16933 30746 ft 537 kts 75°
2026-05-09 14:21 30.78729 105.25514 28976 ft 531 kts 87°
2026-05-09 14:21 30.78925 105.29739 27982 ft 530 kts 87°
2026-05-09 14:21 30.79119 105.34017 26944 ft 529 kts 87°
2026-05-09 14:21 30.79304 105.38283 25905 ft 528 kts 86°
2026-05-09 14:22 30.79481 105.42543 25096 ft 527 kts 87°
2026-05-09 14:22 30.79650 105.46778 24247 ft 522 kts 87°
2026-05-09 14:22 30.79810 105.50960 23519 ft 513 kts 86°
2026-05-09 14:22 30.79963 105.55072 22694 ft 504 kts 87°
2026-05-09 14:23 30.80112 105.59113 21919 ft 496 kts 86°
2026-05-09 14:23 30.80254 105.63083 21191 ft 487 kts 86°
2026-05-09 14:23 30.80384 105.66939 20485 ft 480 kts 86°
2026-05-09 14:23 30.80430 105.70797 19924 ft 475 kts 92°
2026-05-09 14:24 30.80054 105.74584 19270 ft 468 kts 96°
2026-05-09 14:24 30.79609 105.78302 18625 ft 461 kts 97°
2026-05-09 14:24 30.79158 105.81967 18028 ft 455 kts 97°
2026-05-09 14:24 30.78708 105.85596 17790 ft 453 kts 97°
2026-05-09 14:25 30.78260 105.89209 17781 ft 451 kts 97°
2026-05-09 14:25 30.77813 105.92823 17789 ft 452 kts 97°
2026-05-09 14:25 30.77366 105.96439 17789 ft 452 kts 97°
2026-05-09 14:25 30.76925 106.00006 17791 ft 452 kts 96°
2026-05-09 14:26 30.76367 106.03601 17784 ft 454 kts 103°
2026-05-09 14:26 30.75563 106.07157 17791 ft 454 kts 103°
2026-05-09 14:26 30.74738 106.10703 17789 ft 454 kts 104°
2026-05-09 14:26 30.73901 106.14244 17792 ft 455 kts 104°
2026-05-09 14:27 30.73059 106.17784 17790 ft 454 kts 104°
2026-05-09 14:27 30.72220 106.21323 17793 ft 454 kts 104°
2026-05-09 14:27 30.71385 106.24863 17794 ft 454 kts 104°
2026-05-09 14:27 30.70561 106.28357 17795 ft 454 kts 104°
2026-05-09 14:28 30.69727 106.31897 17793 ft 454 kts 104°
2026-05-09 14:28 30.68891 106.35439 17799 ft 455 kts 104°
2026-05-09 14:28 30.68053 106.38976 17800 ft 454 kts 104°
2026-05-09 14:28 30.67216 106.42502 17799 ft 453 kts 104°
2026-05-09 14:29 30.66379 106.46030 17795 ft 453 kts 104°
2026-05-09 14:29 30.65543 106.49562 17799 ft 453 kts 103°
2026-05-09 14:29 30.64592 106.53046 17745 ft 453 kts 111°
2026-05-09 14:29 30.63043 106.56139 17125 ft 448 kts 127°
2026-05-09 14:30 30.61596 106.57902 16650 ft 445 kts 138°
2026-05-09 14:30 30.58115 106.60314 15764 ft 440 kts 158°
2026-05-09 14:30 30.55165 106.61148 15101 ft 436 kts 172°
2026-05-09 14:30 30.52166 106.61503 14413 ft 431 kts 173°
2026-05-09 14:31 30.49195 106.61840 13742 ft 426 kts 172°
2026-05-09 14:31 30.46258 106.62145 13011 ft 422 kts 175°
2026-05-09 14:31 30.43336 106.62129 12306 ft 419 kts 182°
2026-05-09 14:31 30.40445 106.61714 11646 ft 417 kts 188°
2026-05-09 14:32 30.37638 106.60917 10973 ft 413 kts 195°
2026-05-09 14:32 30.34939 106.60281 10816 ft 390 kts 181°
2026-05-09 14:32 30.32327 106.60577 10699 ft 367 kts 163°
2026-05-09 14:32 30.30021 106.61606 10581 ft 346 kts 149°
2026-05-09 14:33 30.28031 106.63041 10464 ft 330 kts 144°
2026-05-09 14:33 30.26137 106.64440 10349 ft 317 kts 144°
2026-05-09 14:33 30.24310 106.65777 10234 ft 305 kts 144°
2026-05-09 14:33 30.22555 106.67070 10116 ft 293 kts 142°
2026-05-09 14:34 30.21146 106.68660 10000 ft 276 kts 121°
2026-05-09 14:34 30.20341 106.70569 9866 ft 262 kts 104°
2026-05-09 14:34 30.19830 106.72544 9737 ft 251 kts 104°
2026-05-09 14:34 30.19336 106.74440 9603 ft 241 kts 104°
2026-05-09 14:35 30.18860 106.76259 9478 ft 233 kts 104°
2026-05-09 14:35 30.18370 106.78014 9351 ft 227 kts 111°
2026-05-09 14:35 30.17317 106.79333 9210 ft 229 kts 152°
2026-05-09 14:35 30.15758 106.79557 9088 ft 229 kts 187°
2026-05-09 14:36 30.14226 106.79137 8965 ft 224 kts 194°
2026-05-09 14:36 30.12795 106.78603 8854 ft 211 kts 197°
2026-05-09 14:36 30.11470 106.78077 8754 ft 189 kts 197°
2026-05-09 14:36 30.10298 106.77617 8604 ft 169 kts 196°
2026-05-09 14:37 30.09203 106.77200 8321 ft 163 kts 195°
2026-05-09 14:37 30.08133 106.76793 8004 ft 161 kts 197°
2026-05-09 14:37 30.07075 106.76390 7674 ft 159 kts 196°
2026-05-09 14:37 30.06024 106.76009 7360 ft 157 kts 195°
2026-05-09 14:38 30.04982 106.75641 7044 ft 156 kts 196°
2026-05-09 14:38 30.03970 106.75286 6915 ft 153 kts 196°
2026-05-09 14:38 30.02942 106.74927 6915 ft 155 kts 196°
2026-05-09 14:38 30.01908 106.74567 6905 ft 156 kts 196°
2026-05-09 14:39 30.00868 106.74205 6799 ft 156 kts 196°
2026-05-09 14:39 29.99834 106.73845 6631 ft 155 kts 196°
2026-05-09 14:39 29.98807 106.73487 6446 ft 154 kts 196°
2026-05-09 14:39 29.97789 106.73133 6246 ft 153 kts 196°
2026-05-09 14:40 29.96776 106.72781 6037 ft 152 kts 197°
2026-05-09 14:40 29.95782 106.72435 5847 ft 151 kts 197°
2026-05-09 14:40 29.94778 106.72086 5648 ft 150 kts 197°
2026-05-09 14:40 29.93778 106.71739 5451 ft 150 kts 197°
2026-05-09 14:41 29.92784 106.71393 5255 ft 149 kts 197°
2026-05-09 14:41 29.91796 106.71050 5063 ft 148 kts 197°
2026-05-09 14:41 29.90814 106.70709 4865 ft 147 kts 197°
2026-05-09 14:41 29.89834 106.70369 4677 ft 147 kts 197°
2026-05-09 14:42 29.88860 106.70031 4487 ft 146 kts 197°
2026-05-09 14:42 29.87883 106.69692 4288 ft 147 kts 198°
2026-05-09 14:42 29.86920 106.69357 4108 ft 146 kts 198°
2026-05-09 14:42 29.85951 106.69021 3912 ft 145 kts 197°
2026-05-09 14:43 29.84991 106.68688 3725 ft 144 kts 197°
2026-05-09 14:43 29.84036 106.68357 3539 ft 143 kts 197°
2026-05-09 14:43 29.83087 106.68028 3356 ft 142 kts 197°
2026-05-09 14:43 29.82141 106.67700 3173 ft 141 kts 197°
2026-05-09 14:44 29.81203 106.67375 2983 ft 141 kts 196°
2026-05-09 14:44 29.80266 106.67050 2795 ft 140 kts 196°
2026-05-09 14:44 29.79346 106.66732 2618 ft 140 kts 196°
2026-05-09 14:44 29.78418 106.66410 2432 ft 139 kts 196°
2026-05-09 14:45 29.77489 106.66088 2252 ft 139 kts 196°
2026-05-09 14:45 29.76560 106.65765 2067 ft 139 kts 196°
2026-05-09 14:45 29.75634 106.65437 1875 ft 139 kts 196°
2026-05-09 14:45 29.74705 106.65111 1680 ft 139 kts 196°
2026-05-09 14:46 29.73779 106.64794 1516 ft 139 kts 196°
2026-05-09 14:46 29.72856 106.64474 1369 ft 132 kts 195°
2026-05-09 14:46 29.72105 106.64217 1360 ft 78 kts 197°
2026-05-09 14:46 29.71818 106.64137 1361 ft 29 kts 180°
2026-05-09 14:47 29.71678 106.64148 1358 ft 6 kts 173°
2026-05-09 14:47 29.71636 106.64162 1360 ft 6 kts 162°
2026-05-09 14:47 29.71597 106.64176 1358 ft 6 kts 162°
2026-05-09 14:47 29.71561 106.64188 1360 ft 5 kts 166°
2026-05-09 14:48 29.71526 106.64197 1358 ft 5 kts 168°
2026-05-09 14:48 29.71496 106.64209 1357 ft 4 kts 145°
2026-05-09 14:48 29.71473 106.64259 1360 ft 11 kts 108°
2026-05-09 14:48 29.71448 106.64358 1356 ft 14 kts 106°
2026-05-09 14:49 29.71421 106.64468 1357 ft 13 kts 106°
2026-05-09 14:49 29.71407 106.64520 1357 ft 0 kts 106°
2026-05-09 14:49 29.71407 106.64523 1357 ft 2 kts 106°
2026-05-09 14:49 29.71387 106.64598 1359 ft 17 kts 106°
2026-05-09 14:50 29.71448 106.64697 1358 ft 18 kts 18°
2026-05-09 14:50 29.71577 106.64744 1357 ft 19 kts 18°
2026-05-09 14:50 29.71671 106.64777 1356 ft 15 kts 16°
2026-05-09 14:50 29.71752 106.64804 1355 ft 12 kts 15°
2026-05-09 14:51 29.71831 106.64829 1357 ft 12 kts 15°
2026-05-09 14:51 29.71862 106.64893 1355 ft 11 kts 105°
2026-05-09 14:51 29.71805 106.64904 1355 ft 8 kts 192°
2026-05-09 14:51 29.71760 106.64906 1355 ft 3 kts 146°
2026-05-09 14:52 29.71758 106.64922 1356 ft 2 kts 99°
2026-05-09 14:52 29.71756 106.64940 1354 ft 2 kts 98°
2026-05-09 14:52 29.71754 106.64959 1354 ft 2 kts 98°
2026-05-09 14:52 29.71753 106.64964 1354 ft 0 kts 98°
2026-05-09 14:53 29.71753 106.64965 1354 ft 0 kts 98°